Location: Carthage
(33.8834°N, 106.6595°W)
Time: 13:55:38
(UTC+00:00)

Cosmos 2084 - Pass Details

Date: 13 February 2026
Orbit: 538 x 561 km, 62.8° (Epoch: 11 March)

Event Time Altitude Azimuth Distance (km) Brightness Sun altitude
Exits shadow 12:08:11 81° 218° (SW) 551 3.1 -22.3°
Drops below altitude 10° 12:12:08 10° 153° (SSE) 1,789 6.3 -21.5°
Sets 12:14:19 0° 152° (SSE) 2,674 7.2 -21.0°
